GSAT0207 (GALILEO 15)

Last updated on Mon Oct 13 2025 00:02:34 GMT+0000 (Coordinated Universal Time)

1 41859U 16069A 25285.20735497 .00000039 00000+0 00000+0 0 9998 2 41859 55.3429 107.9537 0002236 348.5510 11.4858 1.70473979 55170
UTC large
Height (km)
Speed (km/s)
/
Latitude / Longitude
Inclination (degrees)
Orbital Period (minutes)
Azimuth
Elevation
Range (km)
Doppler Factor

Next 0 passes for location: London (51.5072 / 0.1276)

Sorry there are no passes over London.